Weather History for KBPI - October, 2013

Change the Weather History Date:

Wednesday, October 9, 2013

  Actual Average Record
Temperature  
Mean Temperature 43 °F 41 °F  
Max Temperature 56 °F 59 °F 75 °F (2003)
Min Temperature 29 °F 24 °F 5 °F (1987)
Degree Days  
Heating Degree Days 22 24  
Month to date heating degree days 209 203  
Since 1 July heating degree days 647 954  
Cooling Degree Days 0 0  
Month to date cooling degree days 0 0  
Year to date cooling degree days 89 35  
Moisture  
Dew Point 28 °F    
Average Humidity 59    
Maximum Humidity 85    
Minimum Humidity 32    
Precipitation  
Precipitation 0.00 in 0.02 in 0.37 in (1993)
Month to date precipitation 0.24 0.20  
Year to date precipitation 4.07 5.64  
Sea Level Pressure  
Sea Level Pressure 29.82 in    
Wind  
Wind Speed 6 mph (ENE)    
Max Wind Speed 23 mph    
Max Gust Speed 29 mph    
Visibility 10 miles    
Events      
T = Trace of Precipitation, MM = Missing Value Source: NWS Daily Summary

Daily Weather History Graph

Daily Weather History Graph

Search for Another Location

Airport or City:

Trip Planner

Search our weather history database for the weather conditions in past years. The results will help you decide how hot, cold, wet, or windy it might be!

Date:

Astronomy

Oct. 09, 2013 Rise Set
Actual Time 7:26 AM MDT 6:47 PM MDT
Civil Twilight 6:58 AM MDT 7:15 PM MDT
Nautical Twilight 6:26 AM MDT 7:48 PM MDT
Astronomical Twilight 5:53 AM MDT 8:21 PM MDT
Moon 12:30 PM MDT (10/9) 10:20 PM MDT (10/9)
Length of Visible Light 12h 17m
Length of Day
11h 20m
Waxing Crescent, 26% of the Moon is Illuminated
Oct 9
Waxing Crescent
Oct 11
First Quarter
Oct 18
Full
Oct 26
Last Quarter
Nov 3
New

Hourly Weather History & Observations

Time (MDT) Temp. Windchill Dew Point Humidity Pressure Visibility Wind Dir Wind Speed Gust Speed Precip Events Conditions
12:53 AM 32.0 °F 27.5 °F 25.0 °F 75% 29.80 in 10.0 mi North 4.6 mph - N/A   Overcast
1:53 AM 30.9 °F 27.5 °F 24.1 °F 76% 29.80 in 10.0 mi North 3.5 mph - N/A   Partly Cloudy
2:53 AM 30.0 °F 24.1 °F 25.0 °F 82% 29.80 in 10.0 mi East 5.8 mph - N/A   Partly Cloudy
3:53 AM 32.0 °F - 26.1 °F 79% 29.77 in 10.0 mi Calm Calm - N/A   Overcast
4:53 AM 30.9 °F - 26.1 °F 82% 29.78 in 10.0 mi Calm Calm - N/A   Overcast
5:53 AM 33.1 °F - 27.0 °F 78% 29.81 in 10.0 mi Calm Calm - N/A   Overcast
6:53 AM 32.0 °F 26.4 °F 27.0 °F 82% 29.83 in 10.0 mi North 5.8 mph - N/A   Partly Cloudy
7:53 AM 30.0 °F 23.2 °F 26.1 °F 85% 29.86 in 10.0 mi North 6.9 mph - N/A   Mostly Cloudy
8:53 AM 36.0 °F - 28.9 °F 76% 29.86 in 10.0 mi Calm Calm - N/A   Overcast
9:53 AM 39.0 °F 36.8 °F 30.0 °F 70% 29.89 in 10.0 mi SE 3.5 mph - N/A   Overcast
10:53 AM 44.1 °F - 30.0 °F 58% 29.87 in 10.0 mi Calm Calm - N/A   Overcast
11:53 AM 50.0 °F - 30.0 °F 46% 29.85 in 10.0 mi Calm Calm - N/A   Overcast
12:53 PM 51.1 °F - 30.9 °F 46% 29.85 in 10.0 mi SE 20.7 mph 28.8 mph N/A   Mostly Cloudy
1:53 PM 54.0 °F - 28.9 °F 38% 29.81 in 10.0 mi SE 19.6 mph 28.8 mph N/A   Partly Cloudy
2:53 PM 55.0 °F - 28.0 °F 35% 29.81 in 10.0 mi South 6.9 mph 18.4 mph N/A   Clear
3:53 PM 55.0 °F - 27.0 °F 34% 29.79 in 10.0 mi SSE 10.4 mph - N/A   Mostly Cloudy
4:53 PM 55.0 °F - 28.9 °F 37% 29.80 in 10.0 mi SSE 18.4 mph 26.5 mph N/A   Scattered Clouds
5:53 PM 51.1 °F - 30.0 °F 44% 29.81 in 10.0 mi ESE 9.2 mph - N/A   Clear
6:53 PM 46.9 °F - 30.0 °F 52% 29.83 in 10.0 mi East 6.9 mph - N/A   Mostly Cloudy
7:53 PM 44.1 °F 41.5 °F 30.0 °F 58% 29.86 in 10.0 mi NNE 4.6 mph - N/A   Mostly Cloudy
8:53 PM 44.1 °F 41.5 °F 30.9 °F 60% 29.82 in 10.0 mi NNW 4.6 mph - N/A   Overcast
9:53 PM 46.0 °F - 30.0 °F 54% 29.80 in 10.0 mi Calm Calm - N/A   Mostly Cloudy
10:53 PM 37.0 °F 33.3 °F 32.0 °F 82% 29.82 in 10.0 mi WNW 4.6 mph - N/A   Mostly Cloudy
11:53 PM 37.9 °F 35.5 °F 30.9 °F 76% 29.78 in 10.0 mi NW 3.5 mph - N/A   Clear